ATLAS D DEB, 2327

Orbit data source: Space-Track

ATLAS D DEB, 2327 is space debris in LEO originally from a launch on Thu, 14 Jul 1966 UTC launched from the Air Force Western Test Range (AFWTR). Debris objects in space refer to the collection of defunct objects orbiting the Earth. Examples of debris include non-operational satellites, rocket bodies, and fragments generated from explosions, collisions, or faulty payload assembly.

Loading next visibility...
Identifier
2327, 1966-063B
Orbit
LEO
Country
Flag of USUS
Related business
Manufacturer
Goodyear
Mission
Spacecraft
Bus & Motor
CONTAINER, Unknown motor
Mass
2 kg wet, 2 kg dry
Launch date (UTC)
1966-07-14 (59 years ago)
Launch vehicle
Unknown
Launch site
Air Force Western Test Range (AFWTR)
Object type
Payload
Rocket body
Debris
Shape & HBR
Half Cyl, 0.3 m
Radar Cross Section
0.210 m², Medium (>0.1 m² and < 1m²)

Expand to show TLE details & history
Last TLE update: 9 hours ago

TLE from 9 hours ago
0 ATLAS D DEB
1 02327U 66063B   25260.11805872  .00001040  00000-0  47003-3 0  9994
2 02327 144.1954 316.2448 0032545 332.9862  26.9139 14.04904387999685
Epoch: 2025-09-17T02:50Z
TLE epoch observation values (Epoch: 2025-09-17T02:50:00.273Z)
Latitude
-0.00006°
Longitude
-82.55485°
Altitude
854.872 km
Speed
7.438 km/s
True Right ascension
21h 04m 58s
True Declination
0° 00' 00"
Sunlit
Object was in full shadow at epoch
Visualization orbit readout
Latitude
Unknown
Longitude
Unknown
Altitude
Unknown
Speed
Unknown
Apparent Right ascension
Unknown
Apparent Declination
Unknown
Sunlit
N/A
Visualization observer readout
Local Sidereal Time
04:22:14
Azimuth
Unknown
Elevation
Unknown
Doppler factor
Unknown
Orbital elements
Apogee altitude
903.442 km
Perigee altitude
856.2 km
Semi-major axis
7,257.958 km
Eccentricity
0.00325
Inclination
144.1954°
RAAN
316.2448°
Arg. of periapsis
332.9862°
True anomaly
27.08333°
Mean anomaly
26.9139°
Eccentric anomaly
26.99855°
Mean motion
3.51012 °/min
Orbital period
102.56 mins
BSTAR
0.00047003
Loading maneuver chart data...
Computing Atmospheric mass density...
Loading historical data...
Loading historical data...
Loading historical data...
Loading historical data...
Loading historical data...
Loading historical data...
Loading historical data...

Documentation

Showing up to 5 results
|